TimeCST,TemperatureF,Dew PointF,Humidity,Sea Level PressureIn,VisibilityMPH,Wind Direction,Wind SpeedMPH,Gust SpeedMPH,PrecipitationIn,Events,Conditions,WindDirDegrees,DateUTC
12:53 AM,50.0,35.1,57,30.15,10.0,SW,12.7,-,N/A,,Clear,220,2011-11-12 06:53:00
1:53 AM,48.9,36.0,61,30.15,10.0,SW,13.8,-,N/A,,Clear,220,2011-11-12 07:53:00
2:53 AM,48.9,37.0,64,30.15,10.0,SSW,12.7,-,N/A,,Clear,210,2011-11-12 08:53:00
3:53 AM,41.0,36.0,82,30.16,10.0,South,8.1,-,N/A,,Clear,190,2011-11-12 09:53:00
4:53 AM,39.9,36.0,86,30.16,-9999.0,South,8.1,-,N/A,,Clear,180,2011-11-12 10:53:00
5:53 AM,41.0,36.0,82,30.17,-9999.0,South,6.9,-,N/A,,Clear,170,2011-11-12 11:53:00
6:53 AM,42.1,37.0,82,30.18,10.0,South,6.9,-,N/A,,Clear,170,2011-11-12 12:53:00
7:53 AM,46.9,37.9,71,30.18,10.0,South,9.2,-,N/A,,Clear,170,2011-11-12 13:53:00
8:53 AM,51.1,41.0,68,30.19,-9999.0,South,11.5,-,N/A,,Mostly Cloudy,180,2011-11-12 14:53:00
9:53 AM,57.0,44.1,62,30.19,10.0,South,16.1,-,N/A,,Clear,180,2011-11-12 15:53:00
10:53 AM,64.0,48.0,56,30.17,-9999.0,South,19.6,25.3,N/A,,Clear,190,2011-11-12 16:53:00
11:53 AM,66.0,48.0,52,30.14,10.0,SSW,18.4,31.1,N/A,,Clear,200,2011-11-12 17:53:00
12:53 PM,66.9,48.0,51,30.10,10.0,SSW,24.2,33.4,N/A,,Clear,200,2011-11-12 18:53:00
1:53 PM,68.0,48.9,50,30.09,10.0,South,20.7,25.3,N/A,,Clear,190,2011-11-12 19:53:00
2:53 PM,66.9,48.0,51,30.05,10.0,SSW,17.3,29.9,N/A,,Partly Cloudy,200,2011-11-12 20:53:00
3:53 PM,66.9,48.9,52,30.05,10.0,SSW,20.7,26.5,N/A,,Clear,200,2011-11-12 21:53:00
4:53 PM,64.9,48.9,56,30.05,10.0,South,12.7,-,N/A,,Clear,190,2011-11-12 22:53:00
5:53 PM,64.9,48.9,56,30.03,10.0,SSE,16.1,-,N/A,,Clear,160,2011-11-12 23:53:00
6:53 PM,64.0,48.9,58,30.03,10.0,SSE,12.7,-,N/A,,Clear,150,2011-11-13 00:53:00
7:53 PM,63.0,50.0,63,30.02,10.0,South,16.1,23.0,N/A,,Clear,170,2011-11-13 01:53:00
8:53 PM,64.0,50.0,60,30.03,10.0,South,21.9,28.8,N/A,,Clear,180,2011-11-13 02:53:00
9:53 PM,63.0,51.1,65,30.02,10.0,South,19.6,-,N/A,,Clear,170,2011-11-13 03:53:00
10:53 PM,62.1,51.1,67,30.02,10.0,South,15.0,-,N/A,,Clear,180,2011-11-13 04:53:00
11:53 PM,61.0,51.1,70,30.02,10.0,South,13.8,-,N/A,,Clear,180,2011-11-13 05:53:00